Weather History for Skagway, AK

Change the Weather History Date:

Monday, October 1, 2012

  Actual Average Record
Temperature  
Mean Temperature 38 °F -  
Max Temperature 46 °F 50 °F 60 °F (1988)
Min Temperature 30 °F 40 °F 28 °F (1996)
Degree Days  
Heating Degree Days 28    
Moisture  
Dew Point 33 °F    
Average Humidity 85    
Maximum Humidity 93    
Minimum Humidity 70    
Precipitation  
Precipitation 0.02 in - - ()
Sea Level Pressure  
Sea Level Pressure 30.10 in    
Wind  
Wind Speed 2 mph (NE)    
Max Wind Speed 5 mph    
Max Gust Speed -    
Visibility 10 miles    
Events Rain    
Averages and records for this station are not official NWS values.
T = Trace of Precipitation, MM = Missing Value Source: NWS Daily Summary

Daily Weather History Graph

Daily Weather History Graph

Search for Another Location

Airport:

Trip Planner

Search our weather history database for the weather conditions in past years. The results will help you decide how hot, cold, wet, or windy it might be!

Date:

Astronomy

Oct. 01, 2012 Rise Set
Actual Time 7:08 AM AKDT 6:32 PM AKDT
Civil Twilight 6:27 AM AKDT 7:12 PM AKDT
Nautical Twilight 5:39 AM AKDT 8:00 PM AKDT
Astronomical Twilight 4:49 AM AKDT 8:50 PM AKDT
Moon 6:31 PM AKDT (10/1) 9:22 AM AKDT (10/1)
Length of Visible Light 12h 45m
Length of Day
11h 24m
Full, 97% of the Moon is Illuminated
Oct 1
Full
Oct 7
Last Quarter
Oct 15
New
Oct 21
First Quarter
Oct 29
Full

Hourly Weather History & Observations

Time (AKDT) Temp. Windchill Dew Point Humidity Pressure Visibility Wind Dir Wind Speed Gust Speed Precip Events Conditions
12:53 AM 37.0 °F 34.5 °F 34.0 °F 89% 29.90 in 10.0 mi NE 3.5 mph - N/A   Clear
1:53 AM 36.0 °F - 33.1 °F 89% 29.88 in 10.0 mi Calm Calm - N/A   Clear
2:53 AM 35.1 °F 31.0 °F 32.0 °F 89% 29.87 in 10.0 mi NNE 4.6 mph - N/A   Clear
3:53 AM 34.0 °F 31.0 °F 32.0 °F 92% 29.86 in 10.0 mi ENE 3.5 mph - N/A   Clear
4:53 AM 33.1 °F 30.0 °F 30.9 °F 92% 29.87 in 10.0 mi NE 3.5 mph - N/A   Clear
5:53 AM 33.1 °F 30.0 °F 30.9 °F 92% 29.88 in 10.0 mi NNE 3.5 mph - N/A   Clear
6:53 AM 32.0 °F - 30.0 °F 92% 29.90 in 10.0 mi Calm Calm - N/A   Clear
7:53 AM 30.9 °F 27.5 °F 28.9 °F 92% 29.92 in 10.0 mi ENE 3.5 mph - N/A   Clear
8:53 AM 32.0 °F 27.5 °F 30.0 °F 92% 29.94 in 9.0 mi NE 4.6 mph - N/A   Clear
9:53 AM 35.1 °F - 33.1 °F 92% 29.97 in 10.0 mi Calm Calm - N/A   Overcast
10:53 AM 39.0 °F - 33.1 °F 79% 29.99 in 10.0 mi Calm Calm - N/A   Mostly Cloudy
11:53 AM 39.9 °F - 34.0 °F 79% 30.04 in 10.0 mi Calm Calm - N/A   Overcast
12:53 PM 42.1 °F - 34.0 °F 73% 30.09 in 10.0 mi Calm Calm - 0.00 in Rain Light Rain
1:12 PM 42.8 °F 41.1 °F 33.8 °F 70% 30.10 in 5.0 mi NNW 3.5 mph - 0.01 in Rain Rain
1:33 PM 41.0 °F 39.0 °F 35.6 °F 81% 30.11 in 10.0 mi SW 3.5 mph - 0.02 in Rain Light Rain
1:53 PM 42.1 °F - 36.0 °F 79% 30.14 in 10.0 mi Calm Calm - 0.02 in   Partly Cloudy
2:53 PM 45.0 °F 43.5 °F 36.0 °F 71% 30.16 in 10.0 mi NE 3.5 mph - N/A   Clear
3:53 PM 45.0 °F - 36.0 °F 71% 30.19 in 10.0 mi Calm Calm - N/A   Clear
4:53 PM 43.0 °F - 36.0 °F 76% 30.22 in 10.0 mi Calm Calm - N/A   Clear
5:53 PM 41.0 °F - 36.0 °F 82% 30.27 in 10.0 mi Calm Calm - N/A   Clear
6:53 PM 39.9 °F - 37.0 °F 89% 30.31 in 10.0 mi Calm Calm - N/A   Clear
7:53 PM 37.0 °F 34.5 °F 35.1 °F 93% 30.35 in 10.0 mi North 3.5 mph - N/A   Clear
8:53 PM 36.0 °F - 34.0 °F 93% 30.39 in 10.0 mi Calm Calm - N/A   Clear
9:53 PM 35.1 °F - 33.1 °F 92% 30.41 in 10.0 mi Calm Calm - N/A   Clear
10:53 PM 34.0 °F - 32.0 °F 92% 30.45 in 9.0 mi Calm Calm - N/A   Clear
11:53 PM 33.1 °F - 30.9 °F 92% 30.48 in 10.0 mi Calm Calm - N/A   Clear